Location: Greenwich
(51.4790°N, 0.0090°E)
Time: 09:23:44
(UTC+01:00)

Explorer 7 - Pass Details

Date: 25 April 2024
Orbit: 467 x 625 km, 50.3° (Epoch: 28 May)

Event Time Altitude Azimuth Distance (km) Brightness Sun altitude
Rises 10:33:30 0° 226° (SW) 2,859 10.4 42.1°
Reaches altitude 10° 10:35:54 10° 218° (SW) 1,974 9.8 42.4°
Maximum altitude 10:40:05 37° 151° (SSE) 977 10.0 42.9°
Drops below altitude 10° 10:44:20 10° 85° (E) 2,008 10.3 43.4°
Sets 10:46:47 0° 77° (ENE) 2,914 10.9 43.7°
